Regional Weather Roundup
Issued by NWS Pendleton, OR

Home | Current Version | Previous Version | Text Only | Print | Product List | Glossary On
Versions: 1 2 3 4 5 6 7 8 9 10 11 12 13 14 15 16 17 18 19 20 21 22 23 24 25 26 27 28 29 30 31 32 33 34 35 36 37 38 39 40 41 42 43 44 45 46 47 48 49 50
000
ASUS46 KPDT 270425
RWRPDT
PENDLETON REGIONAL WEATHER ROUNDUP
NATIONAL WEATHER SERVICE PENDLETON OREGON
800 PM PST WED NOV 26 2014

NOTE: FAIR INDICATES FEW OR NO CLOUDS BELOW 12,000 FEET WITH NO
SIGNIFICANT WEATHER AND/OR OBSTRUCTIONS TO VISIBILITY.

# INDICATES UNOFFICIAL STATION AND DATA

WAZ520-270510-
EAST SLOPES OF WASHINGTON CASCADES

CITY            SKY/WX      TMP DP  RH  WIND    PRES   REMARKS
#BULLFROG 2SW   N/A         41  41  100 CALM    27.57F
#BUMPING DAM    N/A         46  N/A N/A S2      N/A
#CLE ELUM HS    N/A         40  39  96  CALM    29.94S
#CLE ELUM 2NW   N/A         40  40  100 CALM    N/A
#CLE ELUM LAKE  N/A         43  42  96  CALM    29.94F
#CLIFFDEL 2NW   N/A         41  39  93  NE1     N/A
#GLENWOOD       N/A         53  48  83  S5      29.98F
#MANASTASH CYN  N/A         39  37  92  CALM    29.94F
#NELSON         N/A         40  39  96  CALM    30.01F
#NELSON 3SW     N/A         40  39  96  CALM    30.19F
#NILE           N/A         39  38  96  CALM    29.27F
#RONALD 2NW     N/A         44  41  89  N1      29.84F
#SNOWDEN        N/A         46  40  79  CALM    N/A
#TEANAWAY 4NE   N/A         39  39  100 CALM    N/A
#TROUT LAKE HS  N/A         51  49  93  CALM    N/A
#TROUT LAKE 1NE N/A         48  46  93  CALM    30.02F
$$

WAZ521-270510-
SIMCOE HIGHLANDS

CITY            SKY/WX      TMP DP  RH  WIND    PRES   REMARKS
#BICKLETON HS   N/A         47  41  79  W3      30.15S
#CENTERVILLE 4W N/A         51  46  83  N1      29.78F
#CENTERVILLE 1SWN/A         43  40  89  CALM    30.01R
#GOLDENDALE     N/A         48  45  89  SW2     N/A
#GOLDENDALE 1NE N/A         47  43  86  CALM    N/A
#GOLDENDALE 1S  N/A         47  45  93  CALM    30.00F
#GOLDENDALE 5WNWN/A         49  44  83  CALM    29.99F
#GOODNOE HILLS  N/A         52  45  77  NW7     N/A
#LYLE 6NE       N/A         51  46  83  CALM    29.98F
$$

WAZ026-270510-
KITTITAS VALLEY

CITY            SKY/WX      TMP DP  RH  WIND    PRES   REMARKS
ELLENSBURG AP   FOG         38  36  92  CALM    29.99F VSB 1/4
#ELLENSBURG CWU N/A         36  35  96  CALM    29.99F
#ELLENSBURG 3NE N/A         36  35  96  CALM    29.99F
#ELLENSBURG     N/A         38  38  100 SE1     N/A
#ELLENSBURG 1E  N/A         35  34  96  CALM    N/A
#KITTITAS 4N    N/A         36  33  89  CALM    30.02F
#KITTITAS 3S    N/A         33  32  96  CALM    30.02F
#THORP 6N       N/A         40  39  96  E2      30.03F
$$

WAZ027-270510-
YAKIMA VALLEY

CITY            SKY/WX      TMP DP  RH  WIND    PRES   REMARKS
SUNNYSIDE AP    PTCLDY      43  41  93  CALM    30.00F
YAKIMA AIRPORT  CLOUDY      40  36  85  CALM    29.99F FOG
YAKIMA-VAGABOND MOCLDY      41  38  89  VRB2    29.99F
#DONALD 2NE     N/A         52  44  74  SW1     28.82F
#GRANDVIEW      N/A         48  42  80  E1      30.03F
#MABTON         N/A         42  41  96  E3      30.00F
#NACHES 2SW     N/A         42  40  93  CALM    30.01S
#OUTLOOK DOT    N/A         N/A N/A N/A E7      N/A
#SELAH 8E       N/A         53  44  71  S15     N/A
#TERRACE HTS    N/A         40  39  96  CALM    29.98F
#TOPPENISH      N/A         48  44  86  CALM    29.92F
#WAPATO 4NE     N/A         52  44  74  SW1     28.82F
#WEST VALLEY    N/A         40  38  92  CALM    29.99F
#W YAKIMA       N/A         44  41  89  W1      30.00F
#WHITE SWAN 5E  N/A         39  38  96  CALM    30.01F
#WILEY CITY 3W  N/A         40  36  85  CALM    29.99F
$$

WAZ028-270510-
LOWER COLUMBIA BASIN...WASHINGTON

CITY            SKY/WX      TMP DP  RH  WIND    PRES   REMARKS
PASCO           FOG         42  42  100 CALM    30.04F VSB 1/2
PROSSER AWOS    N/A         41  41  100 NE6     30.04F
RICHLAND AWOS   FOG         41  41  100 CALM    30.05F VSB 1/4
#BASIN CITY 5SW N/A         39  38  96  E2      30.03F
#BENTON CITY    N/A         39  38  96  CALM    29.96F
#CONNELL 5N     N/A         38  37  96  CALM    30.03F
#CONNELL 5NW    N/A         37  36  96  CALM    30.01F
#ELTOPIA 6NW    N/A         37  37  100 CALM    28.99F
#KAHLOTUS       N/A         45  44  96  SW1     30.04F
#KENNEWICK      N/A         41  41  100 CALM    27.57F
#KENNEWICK 3S   N/A         40  39  96  CALM    30.06F
#PATERSON       N/A         48  44  86  CALM    30.01F
#PROSSER        N/A         45  41  86  CALM    30.03F
#SAGEMOOR 2W    N/A         38  37  96  CALM    29.90F
#TOUCHET 2S     N/A         42  40  93  CALM    30.03F
#WEST PASCO     N/A         42  40  93  CALM    30.06F
$$

WAZ029-270510-
FOOTHILLS OF THE BLUES...WASHINGTON

CITY            SKY/WX      TMP DP  RH  WIND    PRES   REMARKS
WALLA WALLA AP  CLOUDY      51  43  74  CALM    30.03S
#COLLEGE PLACE  N/A         47  40  76  S2      30.06R
#DAYTON SCHOOL  N/A         47  38  71  E1      30.05S
#LOWDEN 2SE     N/A         42  41  96  W3      30.01F
#PLEASANT VIEW 1N/A         48  43  83  S6      30.08F
#PRESCOTT       N/A         44  42  93  CALM    30.03S
#SUDBURY        N/A         46  N/A N/A CALM    N/A
#WHITMAN COLLEGEN/A         49  44  83  SE1     30.07F
#WAITSBURG 5S   N/A         52  42  69  CALM    30.13R
#WAITSBURG 8N   N/A         44  31  60  CALM    30.00S
#WALLA WALLA 5E N/A         55  41  59  S6      N/A
#WALLA WALLA U  N/A         46  43  89  CALM    30.03R
#WHITMAN MISSIONN/A         42  40  93  SW3     30.06R
$$

WAZ030-270510-
BLUE MOUNTAINS...WASHINGTON

CITY            SKY/WX      TMP DP  RH  WIND    PRES   REMARKS
#DIXIE 5SE      N/A         56  31  38  S15     29.99S
$$

ORZ009-041-WAZ024-270510-
COLUMBIA RIVER GORGE

CITY            SKY/WX      TMP DP  RH  WIND    PRES   REMARKS
HOOD RIVER AP   CLOUDY      48  48  100 CALM    30.04S
THE DALLES AP   MOCLDY      49  45  86  SE5     30.03F
#ARLINGTON AIRPON/A         51  45  80  CALM    29.99R
#CELILO DOT     N/A         52  43  71  SE7     N/A
#MARYHILL 2W    N/A         53  49  86  W1      N/A
#MOSIER 1S      N/A         50  45  83  SW6     30.06S
#MURDOCK        N/A         52  49  89  CALM    30.05S
#RUFUS DOT      N/A         N/A N/A N/A SW10    N/A

$$

ORZ510-270510-
NORTH CENTRAL OREGON

CITY            SKY/WX      TMP DP  RH  WIND    PRES   REMARKS
#CHENOWITH 1W   N/A         52  47  83  CALM    N/A
#COW CYN RST AREN/A         52  35  52  SE5     N/A
#DUFUR 9E       N/A         53  43  69  W1      30.06F
#GRASS VALLEY   N/A         42  39  89  S2      N/A
#GRASS VALLEY 1SN/A         46  39  76  CALM    30.07F
#KENT DOT       N/A         48  31  51  S7      N/A
#MORO SCHOOL    N/A         46  43  89  CALM    30.05F
#SHANIKO 5WSW   N/A         51  27  39  S10     N/A
#SHANIKO 4NW    N/A         51  34  52  S13     30.05F
#TYGH VALLEY 2NEN/A         49  42  77  CALM    30.03F
#WAPANITIA AIRPON/A         46  40  79  CALM    30.04F
#WASCO DOT      N/A         44  41  89  E1      N/A
#WASCO 5NE      N/A         46  42  86  CALM    30.01F
$$

ORZ511-270510-
CENTRAL OREGON

CITY            SKY/WX      TMP DP  RH  WIND    PRES   REMARKS
BEND AIRPORT    MOCLDY      48  32  54  SW15    30.11S WCI 42
MADRAS AIRPORT  CLOUDY      46  37  71  S8      30.08S
PRINEVILLE AP   CLOUDY      46  36  68  CALM    30.11S
REDMOND AIRPORT MOCLDY      51  34  52  E5      30.08S
#BEND 1SW       N/A         43  34  70  NE1     N/A
#BEND-AWBREY    N/A         50  36  58  N12     30.09S
#BEND-KIM LN    N/A         48  36  63  SW2     30.08R
#CROOKED RVR RANN/A         49  38  66  S1      30.07F
#CULVER         N/A         55  36  49  E7      30.03F
#LAKE BILLY CHINN/A         51  20  29  S8      30.13F
#POWELL BUTTE 3EN/A         53  35  50  SE6     N/A
#POWELL BUTTE   N/A         54  33  45  W3      29.72S
#PRINEVILLE 3N  N/A         43  37  79  CALM    30.09S
#WARM SPRINGS   N/A         45  40  82  CALM    30.03S


ORZ509-270510-
EAST SLOPES OF OREGON CASCADES

CITY            SKY/WX      TMP DP  RH  WIND    PRES   REMARKS
#BLUE BOX PASS  N/A         50  -1  12  N2      N/A
#BLACK BUTTE RNCN/A         36  33  89  CALM    30.10F
#CAMP SHERMAN   N/A         35  32  89  CALM    30.16F
#LA PINE DOT    N/A         43  24  47  SE3     N/A
#LA PINE 4NW    N/A         42  31  65  CALM    30.23R
#LAVA BUTTE DOT N/A         46  26  45  SE3     N/A
#MT BACHELOR-MIDN/A         38  26  62  S15G28  N/A    WCI 29
#SISTERS AIRPOR N/A         40  38  92  CALM    29.91S
#SISTERS ODOT   N/A         40  N/A N/A CALM    N/A
#SISTERS 3N     N/A         37  32  82  N3      30.10S
#SUNRIVER       N/A         43  34  70  CALM    30.04F
#SUNRIVER AP    N/A         53  50  89  CALM    29.98F
#SUTTLE LK DOT  N/A         40  35  82  W40G66  N/A    WCI 27
#TUMALO 3W      N/A         52  34  50  S8      29.96F
#WANOGA BUTTE D N/A         45  28  51  W13     N/A    WCI 39

$$

ORZ044-270510-
LOWER COLUMBIA BASIN...OREGON

CITY            SKY/WX      TMP DP  RH  WIND    PRES   REMARKS
HERMISTON       CLOUDY      46  43  89  CALM    30.02F
#BOARDMAN 3W    N/A         44  40  86  E3      29.74S
#BOARDMAN 8SW   N/A         49  44  83  SW2     30.00F
#ECHO 8SW       N/A         48  42  80  CALM    30.00F
#IONE SCHOOL    N/A         50  34  54  CALM    30.03S
#IRRIGON 4NW    N/A         48  45  89  SE1     N/A
#UMATILLA SCHOOLN/A         43  43  100 S2      30.05F
#UMATILLA       N/A         46  40  79  SE6     30.00F
$$

ORZ507-270510-
NORTHERN FOOTHILLS OF THE BLUES

CITY            SKY/WX      TMP DP  RH  WIND    PRES   REMARKS
PENDLETON AIRPT CLOUDY      54  39  57  SW9     30.03F
#ADAMS 3WNW     N/A         47  43  86  NE1     30.03F
#ATHENA         N/A         54  41  61  CALM    30.04S
#CAYUSE         N/A         60  40  47  N1      30.01S
#HELIX SCHOOL   N/A         46  42  86  CALM    30.03F
#HELIX 3N       N/A         52  42  69  N5      30.00F
#HOLDMAN 5SE    N/A         54  44  69  CALM    30.03F
#HOLDMAN 6E     N/A         52  42  69  NW3     29.84F
#M-F FERNDALE   N/A         44  39  82  CALM    30.03R
#M-F GROVE ELEM N/A         46  40  79  CALM    30.02R
#M-FREEWATER 5SEN/A         57  41  55  E1      30.03R
#PENDLETON DNTN N/A         49  39  68  CALM    28.82F
#PDT AQUATIC CTRN/A         51  39  63  CALM    30.03S
#PENDLETON 5NE  N/A         49  44  83  CALM    29.99F
#PDT SUNRIDGE   N/A         48  44  86  CALM    30.03F
#PENDLETON 7NW  N/A         53  42  66  CALM    27.08F
#TUTUILLA       N/A         49  42  77  CALM    30.01F
#UMAPINE 2E     N/A         42  40  93  SW2     30.02R
#WESTON SCHOOL  N/A         58  34  40  SW7     30.01S

$$

ORZ508-270510-
SOUTHERN FOOTHILLS OF THE BLUES

CITY            SKY/WX      TMP DP  RH  WIND    PRES   REMARKS
LEXINGTON       CLOUDY      55  37  51  CALM    30.05F
#AJAX           N/A         52  34  50  CALM    29.98S
#CONDON SCHOOL  N/A         50  39  66  CALM    30.01F
#CONDON 5W      N/A         49  36  61  SW5     30.03F
#FOSSIL SCHOOL  N/A         50  38  63  CALM    30.03S
#HEPPNER EOC    N/A         58  36  44  SE3     29.97F
#HEPPNER 4NE    N/A         53  35  50  SE3     30.02F
#LEXINGTON 2SE  N/A         56  39  53  CALM    30.00F
#MIKKALO        N/A         45  38  76  S5      30.03F
#OLEX 4N        N/A         48  43  83  CALM    30.01F
#RUGGS 5NE      N/A         54  34  47  S8      30.20S
#RUGGS 2SW      N/A         53  36  52  SW2     30.05S

$$

ORZ502-503-270510-
BLUE MOUNTAINS

CITY            SKY/WX      TMP DP  RH  WIND    PRES   REMARKS
MEACHAM         CLOUDY      42  38  86  CALM    30.10F
#BATTLE MTN DOT N/A         46  38  73  SE7     N/A
#HARDMAN 10S    N/A         43  35  73  CALM    30.21S
#HEPPNER 15SE   N/A         49  33  54  CALM    30.00F
#LADD CYN SMT   N/A         46  32  58  SE21G28 N/A    WCI 38
#LADD CREEK ODOTN/A         47  27  45  S7      N/A
#LONG CREEK HS  N/A         53  34  48  S8      30.06F
#N POWDER DOT   N/A         39  37  92  SW3     N/A
#PIKES PEAK     N/A         55  33  43  SW24G31 27.99S
#TOLLGATE       N/A         40  36  85  CALM    30.03S
#TROY SCHOOL    N/A         46  42  86  W2      29.95F
#UKIAH          N/A         39  37  92  CALM    30.13S
#WESTON 4E      N/A         50  37  61  E6      29.99S
$$

ORZ505-270510-
JOHN DAY BASIN

CITY            SKY/WX      TMP DP  RH  WIND    PRES   REMARKS
JOHN DAY        CLOUDY      48  37  65  E5      30.12F
#DAYVILLE SCHOOLN/A         48  39  71  E2      30.07F
#MONUMENT HS    N/A         41  37  86  CALM    30.10S
#MT. VERNON 5SE N/A         49  34  56  SE1     30.09F
#WINLOCK        N/A         47  35  63  W2      30.16F
$$

ORZ506-270510-
OCHOCO AND JOHN DAY HIGHLANDS

CITY            SKY/WX      TMP DP  RH  WIND    PRES   REMARKS
#BUCK CREEK DOT N/A         47  42  83  E12     N/A    WCI 42
#HORSE RIDGE DO N/A         52  29  41  S13     N/A
#KEYES SMT DOT  N/A         45  41  86  NE2     N/A
#PINE MTN OBS   N/A         45  29  53  S18G31  N/A    WCI 37
#PRAIRIE CITY   N/A         37  32  82  CALM    30.25F
#SENECA         N/A         33  N/A N/A SW1     N/A
#SENECA 9NW     N/A         31  30  96  CALM    30.22F
$$

ORZ049-270510-
GRANDE RONDE VALLEY

CITY            SKY/WX      TMP DP  RH  WIND    PRES   REMARKS
LA GRANDE       CLOUDY      50  34  54  S13     30.10F
#COVE           N/A         49  43  80  CALM    30.03S
#COVE SCHOOL    N/A         47  39  74  CALM    30.08F
#COVE 6NW       N/A         47  38  71  S7      30.14F
#ELGIN 3N       N/A         49  37  63  NE3     29.82F
#ELGIN 1E       N/A         49  39  68  S5      N/A
#IMBLER SCHOOL  N/A         47  39  74  S5      30.06F
#ISLAND CITY 4N N/A         52  51  96  CALM    29.98F
#LADD CYN DOT   N/A         50  37  61  S23     N/A
#UNION 1S       N/A         49  40  71  SE10    30.03F
$$

ORZ050-270510-
WALLOWA COUNTY

CITY            SKY/WX      TMP DP  RH  WIND    PRES   REMARKS
JOSEPH AIRPORT  CLOUDY      41  37  86  CALM    30.11F
#ENTERPRISE AP  N/A         40  33  76  E3      30.03F
#ENTERPRISE HS  N/A         39  36  89  E3      30.10F
#IMNAHA SCHOOL  N/A         53  39  59  SW10    30.09F
#IMNAHA 10S     N/A         50  37  61  SW1     30.12S
#JOSEPH 3N      N/A         36  32  85  E1      30.11F
#JOSEPH 3W      N/A         42  30  62  W2      29.93F
#LOSTINE        N/A         41  37  86  S2      29.89F
#MT HOWARD 8000 N/A         38  20  48  W14G32  30.16F WCI 30
#PROMISE 1S     N/A         45  37  73  E7      30.19F
#SHEEP RDG 7000 N/A         42  22  45  CALM    30.09F
#WALLOWA SCHOOL N/A         39  37  92  CALM    31.02F



$$



USA.gov is the U.S. government's official web portal to all federal, state and local government web resources and services.